Weather observations for the past three days for
El Centro, Naval Air Facility
| Date | Time (pdt) | Wind (mph) | Vis. (mi.) | Weather | Sky Cond. | Temperature (ºF) | Relative Humidity | Wind Chill (°F) | Heat Index (°F) | Pressure | Precipitation (in) | ||||||
|---|---|---|---|---|---|---|---|---|---|---|---|---|---|---|---|---|---|
| Air | Dwpt | 6 hour | altimeter (in) | sea level (mb) | 1 hr | 3 hr | 6 hr | ||||||||||
| Max. | Min. | ||||||||||||||||
| 10 | 06:56 | S 5 | 10.00 | Fair | CLR | 70 | 37 | 30% | 29.77 | 1009.6 | |||||||
| 10 | 05:56 | SW 3 | 10.00 | Fair | CLR | 64.9 | 33.1 | 31% | 29.75 | 1009.0 | |||||||
| 10 | 04:56 | SW 5 | 10.00 | Fair | CLR | 68 | 27 | 86 | 68 | 21% | 29.74 | 1008.6 | |||||
| 10 | 03:56 | NW 9 | 10.00 | Fair | CLR | 73 | 21.9 | 15% | 29.73 | 1008.4 | |||||||
| 10 | 02:56 | NW 8 | 10.00 | Fair | CLR | 73 | 23 | 15% | 29.73 | 1008.3 | |||||||
| 10 | 01:56 | W 9 | 10.00 | Fair | CLR | 75.9 | 32 | 20% | 76 | 29.72 | 1008.0 | ||||||
| 10 | 00:56 | W 14 | 10.00 | Fair | CLR | 81 | 35.1 | 19% | 79 | 29.73 | 1008.4 | ||||||
| 09 | 23:56 | W 17 | 10.00 | Fair | CLR | 84.9 | 36 | 17% | 82 | 29.73 | 1008.4 | ||||||
| 09 | 22:56 | W 17 | 10.00 | Fair | CLR | 84.9 | 37.9 | 104 | 84 | 19% | 82 | 29.73 | 1008.3 | ||||
| 09 | 21:56 | W 18 | 10.00 | Fair | CLR | 87.1 | 37 | 17% | 84 | 29.72 | 1008.1 | ||||||
| 09 | 20:56 | W 17 | 10.00 | Fair | CLR | 88 | 37 | 16% | 84 | 29.7 | 1007.3 | ||||||
| 09 | 19:56 | W 15 G 24 | 10.00 | Fair | CLR | 91.9 | 32 | 12% | 88 | 29.68 | 1006.5 | ||||||
| 09 | 18:56 | W 16 | 10.00 | Fair | CLR | 98.1 | 33.1 | 10% | 93 | 29.66 | 1005.9 | ||||||
| 09 | 17:56 | S 3 | 10.00 | Fair | CLR | 104 | 28.9 | 7% | 98 | 29.65 | 1005.6 | ||||||
| 09 | 16:56 | Vrbl 6 | 10.00 | Fair | CLR | 104 | 30 | 104 | 93 | 7% | 98 | 29.66 | 1005.9 | ||||
| 09 | 15:56 | Calm | 10.00 | Fair | CLR | 104 | 30.9 | 8% | 98 | 29.67 | 1006.4 | ||||||
| 09 | 14:56 | Vrbl 3 | 10.00 | Fair | CLR | 102 | 30 | 8% | 96 | 29.7 | 1007.3 | ||||||
| 09 | 13:56 | SE 6 | 10.00 | Fair | CLR | 100.9 | 30 | 8% | 95 | 29.73 | 1008.4 | ||||||
| 09 | 12:56 | Vrbl 7 | 10.00 | Fair | CLR | 99 | 34 | 10% | 94 | 29.76 | 1009.1 | ||||||
| 09 | 11:56 | SE 6 | 10.00 | A Few Clouds | FEW230 | 96.1 | 42.1 | 15% | 92 | 29.78 | 1009.8 | ||||||
| 09 | 10:56 | E 7 | 10.00 | A Few Clouds | FEW220 | 93 | 43 | 93 | 64.9 | 18% | 89 | 29.79 | 1010.5 | ||||
| 09 | 09:56 | E 6 | 10.00 | A Few Clouds | FEW210 | 90 | 44.1 | 20% | 86 | 29.8 | 1010.5 | ||||||
| 09 | 08:56 | Calm | 10.00 | A Few Clouds | FEW200 | 84 | 48.9 | 30% | 82 | 29.79 | 1010.3 | ||||||
| 09 | 07:56 | S 3 | 10.00 | Fair | CLR | 78.1 | 48.9 | 36% | 79 | 29.79 | 1010.4 | ||||||
| 09 | 06:56 | S 3 | 10.00 | Fair | CLR | 69.1 | 45 | 42% | 29.78 | 1009.9 | |||||||
| 09 | 05:56 | S 6 | 10.00 | Fair | CLR | 66.9 | 37.9 | 35% | 29.77 | 1009.4 | |||||||
| 09 | 04:56 | SW 8 | 10.00 | Fair | CLR | 73.9 | 30 | 84.9 | 73 | 20% | 29.75 | 1009.0 | |||||
| 09 | 01:56 | SW 13 | 10.00 | Fair | CLR | 81 | 32 | 17% | 79 | 29.75 | 1009.1 | ||||||
| 08 | 23:56 | W 14 | 10.00 | Fair | CLR | 81 | 33.1 | 18% | 79 | 29.78 | 1010.0 | ||||||
| 08 | 21:56 | W 14 | 10.00 | Fair | CLR | 84.9 | 25 | 11% | 82 | 29.78 | 1009.8 | ||||||
| 08 | 20:56 | W 15 | 10.00 | Fair | CLR | 88 | 28 | 11% | 84 | 29.76 | 1009.1 | ||||||
| 08 | 19:56 | W 14 | 10.00 | Fair | CLR | 91 | 30.9 | 12% | 87 | 29.74 | 1008.4 | ||||||
| 08 | 18:56 | W 13 | 10.00 | Fair | CLR | 97 | 34 | 11% | 92 | 29.72 | 1007.9 | ||||||
| 08 | 17:56 | W 14 G 23 | 10.00 | Fair | CLR | 102.9 | 32 | 8% | 97 | 29.71 | 1007.4 | ||||||
| 08 | 16:56 | W 7 | 10.00 | Fair | CLR | 102.9 | 35.1 | 105.1 | 91 | 9% | 97 | 29.71 | 1007.5 | ||||
| 08 | 15:56 | SW 6 | 10.00 | Fair | CLR | 102.9 | 35.1 | 9% | 97 | 29.72 | 1008.0 | ||||||
| 08 | 14:56 | Vrbl 6 | 10.00 | Fair | CLR | 102 | 35.1 | 10% | 97 | 29.75 | 1009.0 | ||||||
| 08 | 13:56 | SE 7 | 10.00 | Fair | CLR | 102 | 37 | 11% | 97 | 29.78 | 1009.8 | ||||||
| 08 | 12:56 | E 7 | 10.00 | Fair | CLR | 99 | 37 | 12% | 94 | 29.8 | 1010.6 | ||||||
| 08 | 11:56 | Vrbl 6 | 10.00 | Fair | CLR | 95 | 44.1 | 17% | 91 | 29.83 | 1011.5 | ||||||
| 08 | 10:56 | SE 7 | 10.00 | Fair | CLR | 91.9 | 48.9 | 91.9 | 70 | 23% | 89 | 29.85 | 1012.2 | ||||
| 08 | 09:56 | E 6 | 10.00 | Fair | CLR | 88 | 50 | 27% | 85 | 29.85 | 1012.4 | ||||||
| 08 | 07:56 | SE 3 | 10.00 | Fair | CLR | 81 | 42.1 | 25% | 79 | 29.85 | 1012.3 | ||||||
| 08 | 06:56 | Calm | 10.00 | Fair | CLR | 73.9 | 39.9 | 29% | 29.84 | 1011.8 | |||||||
| 08 | 05:56 | W 10 | 10.00 | Fair | CLR | 72 | 41 | 33% | 29.81 | 1011.0 | |||||||
| 08 | 03:56 | W 7 | 10.00 | Fair | CLR | 73.9 | 39.9 | 29% | 29.8 | 1010.7 | |||||||
| 08 | 02:56 | NW 5 | 10.00 | Fair | CLR | 73 | 39 | 29% | 29.81 | 1010.9 | |||||||
| 08 | 01:56 | W 6 | 10.00 | Fair | CLR | 75.9 | 41 | 29% | 77 | 29.8 | 1010.8 | ||||||
| 08 | 00:56 | SW 10 | 10.00 | Fair | CLR | 78.1 | 41 | 27% | 78 | 29.81 | 1011.0 | ||||||
| 07 | 22:56 | SW 12 | 10.00 | Fair | CLR | 80.1 | 44.1 | 99 | 80.1 | 28% | 79 | 29.82 | 1011.2 | ||||
| 07 | 21:56 | SW 10 | 10.00 | Fair | CLR | 82 | 46.9 | 29% | 80 | 29.81 | 1011.1 | ||||||
| 07 | 20:56 | W 16 | 10.00 | Fair | CLR | 89.1 | 37.9 | 16% | 85 | 29.8 | 1010.6 | ||||||
| 07 | 19:56 | S 8 | 10.00 | Fair | CLR | 88 | 36 | 16% | 84 | 29.78 | 1009.8 | ||||||
| 07 | 18:56 | S 8 | 10.00 | A Few Clouds | FEW070 | 96.1 | 30 | 10% | 91 | 29.76 | 1009.2 | ||||||
| 07 | 17:56 | SW 8 | 10.00 | A Few Clouds | FEW070 | 98.1 | 30 | 9% | 93 | 29.76 | 1009.2 | ||||||
| 07 | 16:56 | SW 6 | 10.00 | A Few Clouds | FEW070 | 97 | 32 | 99 | 87.1 | 10% | 92 | 29.77 | 1009.5 | ||||
| 07 | 15:56 | Calm | 10.00 | A Few Clouds | FEW070 | 97 | 34 | 11% | 92 | 29.78 | 1009.9 | ||||||
| 07 | 14:56 | SW 10 | 10.00 | A Few Clouds | FEW070 | 97 | 37.9 | 13% | 92 | 29.81 | 1011.0 | ||||||
| 07 | 13:56 | Vrbl 6 | 10.00 | A Few Clouds | FEW070 | 96.1 | 41 | 15% | 92 | 29.84 | 1012.0 | ||||||
| 07 | 12:56 | Calm | 10.00 | A Few Clouds | FEW070 | 93 | 42.1 | 17% | 89 | 29.87 | 1012.9 | ||||||
| 07 | 11:56 | Vrbl 3 | 10.00 | Fair | CLR | 91 | 43 | 19% | 87 | 29.89 | 1013.8 | ||||||
| 07 | 10:56 | SW 6 | 10.00 | Fair | CLR | 87.1 | 45 | 87.1 | 60.1 | 23% | 84 | 29.91 | 1014.4 | ||||
| 07 | 09:56 | Calm | 10.00 | Fair | CLR | 82.9 | 45 | 26% | 81 | 29.92 | 1014.6 | ||||||
| 07 | 08:56 | NW 5 | 10.00 | Fair | CLR | 79 | 46.9 | 32% | 79 | 29.93 | 1014.9 | ||||||
| 07 | 07:56 | W 5 | 10.00 | Fair | CLR | 73 | 48 | 41% | 29.92 | 1014.6 | |||||||
| Date | Time (pdt) | Wind (mph) | Vis. (mi.) | Weather | Sky Cond. | Air | Dwpt | Max. | Min. | Relative Humidity | Wind Chill (°F) | Heat Index (°F) | altimeter (in) | sea level (mb) | 1 hr | 3 hr | 6 hr |
| 6 hour | |||||||||||||||||
| Temperature (ºF) | Pressure | Precipitation (in) | |||||||||||||||